DELTA 1 DEB, 2976

Orbit data source: Space-Track

DELTA 1 DEB, 2976 is space debris in SSO originally from a launch on Thu, 20 Apr 1967 UTC launched from the Air Force Western Test Range (AFWTR). Debris objects in space refer to the collection of defunct objects orbiting the Earth. Examples of debris include non-operational satellites, rocket bodies, and fragments generated from explosions, collisions, or faulty payload assembly.

Loading next visibility...
Identifier
2976, 1967-036C
Orbit
SSO
Last TLE update
2 days ago
Origin
Manufacturer
Unknown
Mission
Spacecraft
Bus & Motor
Unknown
Mass
Unknown
Launch date (UTC)
1967-04-20 (58 years ago)
Launch vehicle
Unknown
Launch site
Air Force Western Test Range (AFWTR)
Object type
Payload
Rocket body
Debris
Shape & HBR
Unknown
Radar Cross Section
Small (<0.1 m²)

Expand to show TLE details & history

TLE from 2 days ago
0 DELTA 1 DEB
1  2976U 67036C   25166.31931322 -.00000010  00000-0  17112-3 0  9997
2  2976 102.1231 289.5311 0098877 131.5050 288.3590 12.82088606721140
Epoch: 2025-06-15T07:39Z
TLE epoch observation values (Epoch: 2025-06-15T07:39:48.662Z)
Latitude
56.832°
Longitude
-108.35529°
Altitude
1,319.058 km
Speed
7.214 km/s
True Right ascension
18h 01m 46s
True Declination
56° 41' 09"
Sunlit
Object was in daylight at epoch
Visualization orbit readout
Latitude
-31.52828°
Longitude
84.82806°
Altitude
1,335.401 km
Speed
7.193 km/s
Apparent Right ascension
07h 28m 13s
Apparent Declination
-78° 05' 06"
Sunlit
Object is in daylight
Visualization observer readout
Local Sidereal Time
06:42:48
Azimuth
177.356° S
Elevation
-28.203°
Doppler factor
1
Orbital elements
Apogee altitude
1,406.833 km
Perigee altitude
1,254.389 km
Semi-major axis
7,708.748 km
Eccentricity
0.00989
Inclination
102.1231°
RAAN
289.5311°
Arg. of periapsis
131.505°
True anomaly
Unknown
Mean anomaly
288.359°
Eccentric anomaly
Unknown
Mean motion
3.20677 °/min
Orbital period
112.26 mins
BSTAR
0.00017112
Loading maneuver chart data...
Loading SW <> Apogee altitude chart data...
Loading historical data...
Loading historical data...
Loading historical data...
Loading historical data...
Loading historical data...
Loading historical data...
Loading historical data...
Other satellites on launch #36 in the year 1967 (1967-04-20 UTC)

DELTA 1 DEB Visibility forecast

Observer location: undefined°, undefined°

Span
Click to sort rows by Start time (UTC) header in descending order
Start Az.
Max El. time (UTC)
Max El. Az.
Max El.
End time (UTC)
End Az.
14 mins2025-06-16 21:24:54.996Z15.929° NNE2025-06-16 21:31:54.996Z250.876° W44.617°2025-06-16 21:38:54.996Z203.747° SW
7 mins2025-06-16 23:17:54.996Z335.588° NNW2025-06-16 23:20:54.996Z308.209° NW16.417°2025-06-16 23:24:54.996Z273.944° WNW
9 mins2025-06-17 06:21:54.996Z93.827° ESE2025-06-17 06:25:54.996Z56.018° ENE21.988°2025-06-17 06:30:54.996Z10.359° NNE
14 mins2025-06-17 08:08:54.996Z168.053° S2025-06-17 08:15:54.996Z280.064° WNW43.959°2025-06-17 08:22:54.996Z338.924° N
4 mins2025-06-17 10:04:54.996Z254.327° W2025-06-17 10:06:54.996Z270.28° WNW12.244°2025-06-17 10:08:54.996Z286.237° WNW
5 mins2025-06-17 19:56:54.996Z52.957° ENE2025-06-17 20:00:54.996Z92.52° ESE22.662°2025-06-17 20:01:54.996Z104.57° ESE
|